Location: Hod?myšl
(49.6132°N, 13.8864°E)
Time: 15:32:49
(UTC+00:00)

Daily predictions for brighter satellites

Satellite Brightness Start Highest point End
(mag) Time Altitude Azimuth Time Altitude Azimuth Time Altitude Azimuth
Cosmos 2251 Rocket 4.4 19:02:14 10° NNW 19:07:26 51° WSW 19:12:35 10° S
Okean 2 Rocket 3.5 19:04:54 10° SSE 19:09:08 44° E 19:13:25 10° NNE
BREEZE-M DEB (TANK) 4.2 19:07:20 10° SW 19:11:53 78° SSE 19:30:44 10° ENE
Cosmos 1371 Rocket 4.0 19:08:34 10° SSW 19:13:52 83° ESE 19:19:14 10° NNE
Cosmos 1536 Rocket 3.5 19:10:21 10° N 19:14:43 78° E 19:19:04 10° SSE
USA 276 1.5 19:14:32 10° WSW 19:15:19 17° SSW 19:15:47 13° SSE
IRS-1A Rocket 4.5 19:09:44 10° SSE 19:15:28 66° ENE 19:21:18 10° N
Feng Yun 1-1 Rocket 4.4 19:12:41 10° S 19:18:04 76° WSW 19:23:30 10° NNW
Cosmos 292 Rocket 3.8 19:13:16 10° NNW 19:18:04 72° ENE 19:22:47 10° SSE
CZ-4C R/B 2.4 19:18:12 10° S 19:21:49 30° ESE 19:26:13 10° NE
Cosmos 1697 Rocket 2.8 19:18:17 10° NNW 19:23:56 84° WSW 19:29:31 10° SSE
USA 305 3.6 19:20:34 10° WNW 19:24:29 44° N 19:28:10 10° E
Okean O Rocket 1.9 19:20:39 10° SE 19:24:49 50° ENE 19:28:58 10° N
ATLAS 3B R/B 3.0 19:18:18 10° NW 19:26:10 90° WSW 19:33:32 10° SE
ERS-1 Rocket 3.2 19:21:49 10° S 19:26:49 72° WSW 19:31:50 10° NNW
SL-16 R/B 4.1 19:23:16 10° N 19:27:20 19° NE 19:31:21 10° E
Cosmos 1741 Rocket 4.3 19:22:21 10° NNW 19:27:38 59° ENE 19:32:45 11° SE
Cosmos 1452 Rocket 4.2 19:23:27 10° SSE 19:28:07 34° ESE 19:32:48 10° NE
Helios 1A Rocket 2.4 19:26:24 10° NNE 19:29:35 78° WNW 19:32:43 10° SSW
Cosmos 332 Rocket 4.4 19:25:29 10° NNW 19:30:08 53° WSW 19:34:45 10° S
Cosmos 1867 3.7 19:24:46 10° SW 19:30:13 82° NW 19:35:43 10° NE
USA 186 2.0 19:28:18 12° SE 19:30:27 36° ENE 19:33:01 10° N
Meteor 1-31 Rocket 4.3 19:30:01 10° SSW 19:33:07 30° W 19:36:14 10° NNW
Cosmos 1331 Rocket 4.1 19:32:14 10° S 19:37:21 56° ESE 19:42:28 10° NNE
Okean-O 2.7 19:33:15 10° SSE 19:37:35 65° ENE 19:41:56 10° N
Cosmos 968 Rocket 3.7 19:33:19 10° NNW 19:38:34 75° WSW 19:43:47 10° SSE
Cosmos 2333 Rocket 4.0 19:35:52 10° N 19:40:08 21° NE 19:44:23 10° E
Cosmos 1892 Rocket 3.7 19:38:26 10° N 19:42:43 54° ENE 19:46:26 13° SSE
Cosmos 2016 Rocket 4.2 19:36:42 10° SSE 19:42:44 51° E 19:48:42 10° NNE
CZ-4B R/B 4.2 19:39:17 13° SE 19:43:05 35° ENE 19:47:26 10° N
Meteor 2-1 Rocket 4.2 19:38:19 10° S 19:44:01 87° ESE 19:49:38 10° NNE
Cosmos 2173 Rocket 4.0 19:38:55 10° S 19:45:02 85° E 19:51:17 10° N
Cosmos 1816 Rocket 4.5 19:40:13 10° N 19:46:23 84° E 19:52:32 10° S
Cosmos 1455 Rocket 3.3 19:43:31 10° S 19:47:46 50° E 19:52:03 10° NNE
SL-08 R/B 3.3 19:46:30 10° NNE 19:51:24 88° ESE 19:56:11 10° SSW
Cosmos 1980 Rocket 2.2 19:46:19 10° NNW 19:52:03 78° ENE 19:56:48 15° SE
Okean 1 Rocket 3.3 19:49:27 10° SSW 19:53:48 75° W 19:58:15 10° N
Meteor 2-3 Rocket 4.3 19:51:37 10° NNW 19:57:07 58° W 20:02:38 10° S
SPOT 3 Rocket 3.8 19:53:56 15° SE 19:58:06 57° ENE 20:03:08 10° N
CZ-4 R/B 3.7 19:57:00 10° SW 19:59:31 18° W 20:02:04 10° NW
CZ-4B R/B 2.8 19:58:30 20° SE 20:00:31 46° ENE 20:03:47 10° N
Cosmos 1782 2.7 19:59:07 16° SSE 20:01:38 48° E 20:05:03 10° NNE
Cosmos 1850 Rocket 4.1 19:56:42 10° NNW 20:01:52 74° WSW 20:06:17 14° SSE
CZ-4B R/B 4.4 20:03:58 10° SSW 20:09:17 42° W 20:14:38 10° NNW
Cosmos 1833 Rocket 3.7 20:05:58 10° SW 20:11:25 50° NW 20:16:54 10° NNE
Cosmos 1802 Rocket 4.0 20:05:18 10° S 20:11:31 88° W 20:17:43 10° N
Cosmos 1110 Rocket 4.2 20:06:14 10° SSW 20:11:31 76° WNW 20:16:52 10° NNE
Cosmos 2084 Rocket 3.9 20:07:37 10° NW 20:11:43 50° NE 20:14:32 19° ESE
Terra 3.5 20:09:28 10° SSW 20:13:36 30° W 20:17:45 10° NNW
Cosmos 1758 Rocket 4.4 20:10:23 10° N 20:14:26 36° ENE 20:16:41 22° SE
IRS-1C Rocket 4.2 20:10:56 19° SSE 20:14:43 63° ENE 20:19:57 10° N
Gbstr 26 Del rocket 3.2 20:11:22 10° WNW 20:16:23 63° SSW 20:18:53 24° SE
Sich 1 Rocket 4.4 20:12:29 10° SSW 20:16:43 50° WNW 20:21:00 10° N
Cosmos 2360 Rocket 4.0 20:13:19 10° N 20:17:44 23° NE 20:22:08 10° E
YAOGAN 11 4.4 20:16:37 10° N 20:21:01 71° WNW 20:25:25 10° SSW
CZ-2C R/B 2.3 20:23:39 36° ESE 20:24:21 47° ENE 20:27:03 10° N
Cosmos 1743 3.1 20:23:53 10° NNW 20:26:45 41° W 20:28:34 19° SSW
Cosmos 2237 4.3 20:21:50 10° NNW 20:27:36 70° ENE 20:31:12 23° SE
Meteor 1-27 4.3 20:25:28 10° SSW 20:31:09 78° WNW 20:36:47 10° N
Cosmos 44 Rocket 3.4 20:27:00 10° SW 20:32:05 86° NW 20:37:19 10° NE
ISS -3.6 20:30:13 10° SW 20:33:26 46° SSE 20:35:05 24° E
Cosmos 2219 Rocket 4.1 20:31:04 10° N 20:35:14 20° NE 20:39:23 10° E
Ariane Rocket 2.9 20:32:21 23° SSE 20:35:34 90° E 20:40:41 10° NNW
Cosmos 1602 Rocket 4.3 20:36:07 10° N 20:40:09 38° ENE 20:41:43 28° ESE
ATLAS 2AS CENTAUR R/B 4.0 20:34:55 10° WSW 20:41:25 42° NNW 20:47:51 10° NE
Cosmos 2369 3.7 20:37:22 10° NNW 20:43:07 84° WSW 20:46:24 27° SSE
SL-4 R/B 4.0 20:41:42 10° WSW 20:43:51 14° SW 20:44:44 14° SSW
Cosmos 2322 Rocket 3.4 20:40:30 10° NNW 20:45:34 33° NE 20:49:17 16° ESE
Cosmos 2082 Rocket 2.1 20:41:34 10° SSW 20:47:16 76° ESE 20:52:59 10° NNE
Cosmos 1437 Rocket 3.1 20:47:59 36° ESE 20:48:17 36° E 20:51:35 10° NNE
USA 305 2.3 20:46:03 10° WNW 20:50:08 84° SSW 20:51:07 46° SE
Cosmos 909 Rocket 4.0 20:43:54 10° SSW 20:50:09 63° ESE 20:56:30 10° NE
Cosmos 2151 2.9 20:47:20 10° N 20:51:28 66° E 20:52:53 38° SSE
USA 234 4.0 20:48:42 10° ENE 20:54:14 29° SE 20:55:31 27° SSE
Cosmos 2233 Rocket 4.3 20:51:34 10° SSW 20:57:45 65° WNW 21:03:53 10° N
Cosmos 1626 Rocket 3.5 20:53:50 10° NNW 20:58:11 78° W 21:00:05 33° S
Cosmos 1607 3.9 20:52:23 10° SW 20:58:33 87° SE 21:04:52 10° NE
Cosmos 2228 3.8 20:55:36 13° SSW 20:59:02 47° WNW 21:03:01 10° N
Okean O Rocket 3.8 20:58:08 10° SW 21:01:16 20° W 21:04:25 10° NW
Cosmos 2278 4.1 20:59:17 10° NNW 21:04:55 55° NE 21:07:47 28° ESE
Okean 1-7 Rocket 4.1 21:04:18 10° N 21:08:36 46° ENE 21:09:50 36° ESE
Cosmos 1992 Rocket 3.9 21:05:58 22° SSW 21:09:21 82° ESE 21:14:35 10° NNE
CZ-4C R/B 2.9 21:05:22 10° WSW 21:09:39 48° NW 21:15:11 10° NE
COSMOS 2406 3.3 21:07:29 28° S 21:10:22 58° ESE 21:16:01 10° NE
Meteor 1-20 Rocket 4.2 21:05:34 10° NNW 21:11:07 80° W 21:13:52 32° S
SL-16 R/B 2.2 21:06:43 10° NNW 21:12:25 74° ENE 21:14:58 34° SE
Helios 1A 3.2 21:09:02 10° NNE 21:12:47 42° E 21:13:02 41° ESE
Nadezhda 4 Rocket 4.1 21:09:30 10° N 21:15:35 62° ENE 21:18:18 33° SE
ATLAS 3B R/B 4.4 21:10:04 10° WNW 21:16:00 25° WSW 21:20:47 13° SSW
Cosmos 1606 Rocket 4.1 21:15:48 37° ESE 21:16:24 40° E 21:20:28 10° NNE
Cosmos 1805 2.9 21:14:47 10° N 21:18:02 58° ENE 21:18:02 58° ENE
Cosmos 1486 Rocket 4.3 21:13:21 10° NNW 21:18:32 56° ENE 21:20:37 34° ESE
Cosmos 2333 Rocket 2.2 21:19:36 10° NNW 21:25:20 82° ENE 21:27:39 38° SE
Cosmos 2098 Rocket 3.3 21:25:32 41° SSE 21:27:14 71° E 21:31:52 10° NNE
Cosmos 1726 Rocket 4.0 21:29:27 37° E 21:29:34 37° E 21:33:19 10° NNE
Meteor 1-25 Rocket 4.3 21:24:26 10° NNW 21:30:09 75° W 21:32:32 36° S
Cosmos 1076 Rocket 3.8 21:30:10 10° N 21:34:21 50° ENE 21:35:03 45° ESE
Cosmos 1980 Rocket 4.1 21:31:23 10° NW 21:35:23 20° W 21:38:33 13° SW
Cosmos 1544 Rocket 4.4 21:35:33 24° SW 21:37:45 45° WNW 21:41:57 10° N
Cosmos 2026 Rocket 4.3 21:33:56 10° N 21:40:12 57° ENE 21:42:46 35° SE
NOSS 3-3 (A) 3.8 21:34:58 10° SW 21:40:13 78° NW 21:46:36 10° NE
Cosmos 1933 4.1 21:44:19 34° WSW 21:45:25 44° WNW 21:49:06 10° N
Spot 4 4.4 21:44:25 37° ESE 21:45:42 47° ENE 21:50:17 10° N
DNEPR-1 R/B 4.3 21:41:16 10° NW 21:46:40 83° NE 21:49:21 37° SE
Okean 1 3.1 21:49:59 64° ENE 21:49:59 64° ENE 21:53:16 10° NNE
Helios 1B rocket 1.9 21:51:51 80° W 21:51:51 80° W 21:55:18 10° NNW
Cosmos 2333 4.3 21:49:47 10° NNW 21:55:30 71° ENE 21:57:35 40° SE
Cosmos 1464 Rocket 4.0 21:53:23 34° SSW 21:56:16 77° W 22:02:28 10° N
Cosmos 1375 Rocket 4.4 21:52:57 28° SSW 21:56:39 79° ESE 22:03:15 10° NE
Cosmos 2360 Rocket 2.1 21:56:47 10° NNW 22:02:30 90° WSW 22:04:14 47° SSE
Meteor 1-26 Rocket 4.3 22:03:06 46° SE 22:04:21 57° E 22:09:50 10° NNE
Meteor 2-10 4.5 21:59:24 10° NNW 22:05:03 62° W 22:06:57 40° SSW
ALOS 2 2.8 22:06:32 52° ESE 22:07:12 59° ENE 22:11:32 10° N
ARIANE 5 R/B 2.6 22:07:11 61° SE 22:07:49 73° ENE 22:12:16 10° N
NOSS 3-3 (C) 4.1 22:02:55 10° SW 22:08:14 65° NW 22:14:41 10° NE
Cosmos 1825 Rocket 3.8 22:04:21 10° NNW 22:08:35 55° W 22:09:11 50° SW
ISS -1.8 22:06:52 10° W 22:08:14 22° W 22:08:14 22° W
Cosmos 1953 Rocket 3.3 22:05:56 10° N 22:10:20 89° WSW 22:10:47 72° S
Cosmos 2058 Rocket 3.3 22:11:46 51° ESE 22:11:55 52° E 22:16:09 10° NNE
BREEZE-M R/B 4.2 22:09:46 10° W 22:17:31 88° N 22:23:20 10° ESE
Cosmos 1092 Rocket 3.9 22:12:38 10° N 22:18:50 87° E 22:20:51 46° SSE
CZ-2C R/B 3.5 22:15:08 10° NNE 22:19:35 84° ESE 22:20:05 69° S
Cosmos 2219 Rocket 2.2 22:14:23 10° NNW 22:20:05 80° ENE 22:21:47 47° SE
NOSS 3-4 (A) 3.8 22:16:18 10° NW 22:22:58 72° SW 22:26:01 39° SSE
NOSS 3-4 (C) 3.8 22:16:54 10° NW 22:23:36 73° SW 22:26:40 39° SSE
Cosmos 540 Rocket 3.4 22:23:21 56° SSE 22:24:04 63° ESE 22:29:10 10° NNE
PSLV R/B 3.7 22:21:34 10° NNE 22:25:43 55° E 22:25:43 55° E
Cosmos 1461 2.7 22:26:32 69° NNW 22:26:32 69° NNW 22:30:07 10° NE
Cosmos 2322 Rocket 2.4 22:24:22 10° NW 22:29:53 55° WSW 22:31:03 46° SSW
MetOp-A 4.3 22:29:01 44° ESE 22:30:15 56° ENE 22:35:01 10° N
Cosmos 2034 Rocket 4.2 22:27:37 36° SSW 22:30:20 66° WNW 22:36:41 10° N
Cosmos 2082 Rocket 4.2 22:27:15 10° W 22:31:57 26° NW 22:36:41 10° NNE
SL-08 ROCKET BODY 4.5 22:30:18 10° N 22:36:27 73° E 22:38:25 45° SSE
Cosmos 1707 3.8 22:38:21 31° N 22:38:21 31° N 22:40:01 10° N
USA 234 3.1 22:31:18 10° ENE 22:37:53 82° SE 22:42:49 19° SW
Cosmos 1536 2.8 22:34:49 10° NNW 22:38:06 68° NW 22:38:06 68° NW
Meteor 2-9 Rocket 4.5 22:34:44 10° N 22:40:00 56° ENE 22:41:29 42° SE
ACS3 Solar Sail 3.4 22:37:49 10° NE 22:42:03 20° E 22:44:07 17° ESE
COSMOS 2428 3.5 22:38:06 10° NNW 22:43:36 47° NE 22:46:33 25° ESE
Cosmos 2237 Rocket 4.0 22:42:05 10° NNW 22:46:52 27° NE 22:51:36 10° E
Cosmos 1763 Rocket 3.5 22:45:39 50° SW 22:47:01 79° WNW 22:52:20 10° NNE
Cosmos-2242 3.1 22:47:28 56° W 22:47:44 58° WNW 22:51:50 10° N
CZ-2C R/B 3.5 22:45:01 10° NNE 22:50:37 59° E 22:51:56 47° SSE
Cosmos 990 Rocket 4.1 22:46:49 10° NNW 22:51:51 56° WSW 22:52:30 52° SW
ARGOS Delta rocket 4.0 22:49:58 10° N 22:54:58 75° WNW 22:56:07 54° SW
SL-16 R/B 3.8 22:51:47 10° NW 22:55:53 21° W 22:56:47 20° WSW
USA 290 3.6 22:56:48 36° NNW 22:56:48 36° NNW 22:59:15 10° N
Cosmos 1354 Rocket 4.3 22:53:38 10° NNW 22:58:42 50° WSW 22:59:19 47° SW
Cosmos 1634 Rocket 4.1 22:57:50 42° SSW 22:59:56 69° WNW 23:06:08 10° N
Cosmos 2279 Rocket 3.9 23:01:48 48° S 23:03:45 88° W 23:10:04 10° N
Cosmos 1470 3.2 23:01:44 10° NNW 23:04:12 47° NNW 23:04:12 47° NNW
SeaSat 1 2.5 23:03:53 50° SE 23:05:09 76° ENE 23:10:04 10° NNW
Meteor 2-6 Rocket 4.3 23:06:35 49° SSW 23:08:19 81° WNW 23:14:20 10° N
Cosmos 2333 Rocket 3.9 23:05:05 10° WNW 23:08:54 19° W 23:09:39 18° WSW
Cosmos 2221 2.3 23:09:57 75° E 23:09:57 75° E 23:14:07 10° NNE
Cosmos 1842 4.0 23:13:51 39° NNW 23:13:51 39° NNW 23:16:08 10° N
Cosmos 841 Rocket 3.9 23:12:28 45° SE 23:13:07 48° ESE 23:18:09 10° NNE
CZ-2C R/B 2.5 23:16:22 56° S 23:17:34 86° WSW 23:22:52 10° NNW
Meteor 1-19 Rocket 4.2 23:17:12 52° S 23:18:39 77° E 23:24:31 10° NNE
BREEZE-M DEB (TANK) 3.3 23:12:24 10° W 23:18:58 69° SSW 23:24:13 10° ESE
NOSS 0 Rocket 4.1 23:18:44 10° NNW 23:24:56 71° ENE 23:28:04 30° SE
Cosmos 1975 3.2 23:25:13 10° NNW 23:28:17 48° WNW 23:28:17 48° WNW
Aureole 1 Rocket 4.2 23:25:43 10° NW 23:30:54 48° WSW 23:32:03 42° SW
Cosmos 2266 Rocket 3.8 23:26:34 10° N 23:32:38 83° W 23:34:28 47° S
Cosmos 2322 3.6 23:28:04 10° NNW 23:33:48 77° WSW 23:35:16 51° S
Cosmos 1812 Rocket 3.4 23:34:01 74° SW 23:34:22 83° WNW 23:38:48 10° N
Cosmos 2297 Rocket 3.1 23:33:58 31° SE 23:35:09 35° ESE 23:40:13 10° NE
Cosmos 44 3.5 23:32:06 10° NW 23:37:27 62° WSW 23:38:08 56° SSW
Cosmos 1271 Rocket 3.6 23:38:07 36° NW 23:38:07 36° NW 23:40:57 10° N
Cosmos 372 Rocket 4.3 23:38:19 10° NW 23:43:10 45° WSW 23:43:34 44° WSW
RESURS DK-1 2.2 23:40:24 10° NNW 23:44:13 79° WNW 23:44:13 79° WNW
Cosmos 1937 Rocket 3.3 23:39:27 10° NNW 23:44:37 78° WSW 23:45:41 56° S
Cosmos 2360 Rocket 4.0 23:42:17 10° WNW 23:45:40 16° W 23:45:57 16° WSW
Lacrosse 4 Rocket 3.6 23:46:25 14° ESE 23:46:25 14° ESE 23:48:25 10° ENE
Meteor 1-11 Rocket 3.8 23:42:25 10° NNW 23:48:07 66° W 23:49:31 48° SSW
GP-B 3.5 23:44:38 10° N 23:48:50 47° W 23:49:14 45° W
Meteor 2-20 4.4 23:48:56 45° SSW 23:50:59 86° W 23:57:07 10° N
